Regional Weather Roundup
Issued by NWS Upton, NY

Current Version | Previous Version | Text Only | Print | Product List | Glossary On
Versions: 1 2 3 4 5 6 7 8 9 10 11 12 13 14 15 16 17 18 19 20 21 22 23 24 25 26 27 28 29 30 31 32 33 34 35 36 37 38 39 40 41 42 43 44 45 46 47 48 49 50
000
ASUS41 KOKX 201005
RWROKX
REGIONAL WEATHER ROUNDUP
NATIONAL WEATHER SERVICE NEW YORK NY
600 AM EDT WED AUG 20 2014

NOTE: "FAIR" INDICATES FEW OR NO CLOUDS BELOW 12,000 FEET WITH NO
SIGNIFICANT WEATHER AND/OR OBSTRUCTIONS TO VISIBILITY.

NYZ071-072-176-178-NJZ106-104-201100-
NEW YORK CITY METRO AREA


CITY           SKY/WX    TMP DP  RH WIND       PRES   REMARKS
CENTRAL PARK   CLOUDY    71  63  75 CALM      29.99R
LAGUARDIA APRT MOCLDY    71  64  78 S5        29.96R
KENNEDY INTL   MOCLDY    67  64  90 NE3       29.96S
NEWARK/LIBERTY MOCLDY    72  64  76 CALM      29.96R
BRNX BOT. GARD   N/A     68  64  88 E2        29.98R
TETERBORO      CLOUDY    70  64  81 CALM      29.95R
$$

NYZ177-179-078>081-201100-
LONG ISLAND NEW YORK

CITY           SKY/WX    TMP DP  RH WIND       PRES   REMARKS
FARMINGDALE    CLEAR     63  61  93 N3        29.97R
ISLIP          PTCLDY    62  59  90 N3        29.96R
SHIRLEY        FOG       58  57  97 N3        29.98R VSB 1/2
WESTHAMPTON    FOG       54  52  93 CALM      29.99R VSB 1
MONTAUK POINT    N/A     65  63  93 CALM      29.99R
$$

NYZ052-065-067-201100-
HUDSON VALLEY

CITY           SKY/WX    TMP DP  RH WIND       PRES   REMARKS
WHITE PLAINS   MOCLDY    65  63  93 NW3       29.97R
NEWBURGH       MOCLDY    64  64 100 CALM      29.98R
MONTGOMERY     CLOUDY    61  58  90 CALM      29.97R
POUGHKEEPSIE   CLOUDY    63  60  90 CALM      29.96R
ALBANY         MOCLDY    60  56  86 N3        29.96R
$$

NJZ001-105-106-008-010-013-015-019>022-104-201100-
NEW JERSEY

CITY           SKY/WX    TMP DP  RH WIND       PRES   REMARKS
NEWARK/LIBERTY MOCLDY    72  64  76 CALM      29.96R
TETERBORO      CLOUDY    70  64  81 CALM      29.95R
CALDWELL       CLOUDY    66  62  87 CALM      29.97R
MORRISTOWN     CLOUDY    64  61  88 CALM      29.97R
SOMERVILLE     CLOUDY    65  62  90 NW3       29.95R
LINDEN         CLOUDY    74  67  79 CALM      29.98R
SUSSEX         CLOUDY    65  61  87 CALM      29.97R
ANDOVER        NOT AVBL
TRENTON        CLOUDY    67  62  84 CALM      29.95R
MILLVILLE      CLOUDY    66  64  93 CALM      29.95R
ATLANTIC CITY  PTCLDY    63  62  97 CALM      29.95R
WRIGHTSTOWN    MOCLDY    64  64  99 E2        29.94R
TOMS RIVER     PTCLDY    63  61  94 CALM      29.96S
BELMAR         CLOUDY    64  59  82 CALM      29.96R
$$

PAZ047>061-062-071-201100-
EASTERN PENNSYLVANIA

CITY           SKY/WX    TMP DP  RH WIND       PRES   REMARKS
PHILADELPHIA   MOCLDY    71  64  78 SE3       29.95S
ALLENTOWN      PTCLDY    66  62  87 CALM      29.95R
SCRANTON       PTCLDY    65  61  87 SE3       29.95R
$$

CTZ002-004>006-009-010-012-RIZ004-006-007-MAZ004-011-015-201100-
SOUTHERN NEW ENGLAND
 IN CT

CITY           SKY/WX    TMP DP  RH WIND       PRES   REMARKS
BRADLEY INTL   MOCLDY    58  54  86 CALM      29.98R
HARTFORD       MOCLDY    60  58  92 CALM      29.99R
DANBURY        CLOUDY    62  61  96 E3        30.00R FOG
WTRBRY/OXFORD  CLOUDY    63  57  82 CALM      30.01R VSB<1/4
BRIDGEPORT     MOCLDY    65  62  90 NE5       29.97R
MERIDEN        FOG       63  62  97 CALM      29.99R VSB 1
NEW HAVEN      FOG       63  62  97 CALM      29.98R VSB 1/4
CHESTER        FOG       63  63 100 CALM      29.99R VSB 1/4
GROTON         FOG       60  60 100 N5        29.98R VSB 1/4
WILLIMANTIC    CLOUDY    56  53  90 CALM      30.00R

 IN RI

CITY           SKY/WX    TMP DP  RH WIND       PRES   REMARKS
PROVIDENCE     PTCLDY    57  56  96 W3        29.99S
BLOCK ISLAND   MOCLDY    61  55  82 CALM      29.98S VSB 1/4
WESTERLY       FOG       58  56  93 N3        29.99R VSB 1/4

 IN MA

CITY           SKY/WX    TMP DP  RH WIND       PRES   REMARKS
BOSTON         PTCLDY    60  55  83 N3        29.99R
WORCESTER      CLEAR     61  58  90 NW3       30.00R
WESTFIELD      CLEAR     55  53  93 CALM      29.99R
PROVINCETOWN   PTCLDY    54  48  82 MISG      30.00R
NANTUCKET      PTCLDY    53  51  93 MISG      29.98R
$$

ANZ330-335-338-340-345-350-353-355-201100-
COASTAL MARINE OBSERVATIONS


STATION/POSITION TIME  SKY/WX   TEMP    WIND        PRES    VSBY  WAVE
                                AIR SEA DIR/SP/G                  HT/PER
                 (UTC)          (F)     (DEG/KT/KT) (MB)    (MI)  (FT/S)
NY HARB ENTRANCE NOT AVBL
4S FIRE IS       NOT AVBL
23SW MTP         1000            67 69              1014.4          2/ 6
HUDSON CANYON    1000            71 72   50/ 10/ 12 1013.6          3/ 6
EXECUTION ROCKS  1000            69 72  100/  6/  8   N/A
WESTERN LI SOUND 1000            70      90/  4/  6   N/A           0
CENTRAL LI SOUND 0900            68 72   90/  6/  6   N/A           0
EASTERN LI SOUND 0900            64 69   30/  6/  8   N/A
ROBBINS REEF     1000            71     110/  2/  3   N/A
$$


>>>>>>>>>>>>>>>>>>>>>>>>>>>> KEY <<<<<<<<<<<<<<<<<<<<<<<<<<<
>                                                          <
>     SKY/WX - SKY CONDITION/PRESENT WEATHER               <
>     TMP    - TEMPERATURE IN FAHRENHEIT                   <
>     DP     - DEWPOINT IN FAHRENHEIT                      <
>     RH     - RELATIVE HUMIDITY IN PERCENT                <
>     WIND   - DIRECTION AND SPEED IN MPH                  <
>     PRES   - MEAN SEA LEVEL PRESSURE IN INCHES OF HG     <
>     WCI    - WIND CHILL INDEX                            <
>     VSB    - VISIBILITY IN MILES                         <
>     HX     - HEAT INDEX                                  <
>     TC     - TEMPERATURE IN CELSIUS                      <
>     VRB    - VARIABLE WIND DIRECTION                     <
>                                                          <
>>>>>>>>>>>>>>>>>>>>>>>>>>>> KEY <<<<<<<<<<<<<<<<<<<<<<<<<<<





USA.gov is the U.S. government's official web portal to all federal, state and local government web resources and services.